OpenBCM V1.13 (Linux)

Packet Radio Mailbox

DB0FHN

[JN59NK Nuernberg]

 Login: GUEST





  
CX2SA  > KEP      13.09.14 05:48l 77 Lines 3172 Bytes #999 (0) @ WW
BID : ARLK071
Read: GUEST DK3UZ DL3SEU DK7NR
Subj: ARLK071 Keplerian data
Path: DB0FHN<HB9EAS<DB0ZAV<UA6ADV<IW2OHX<IQ2LB<IK1NHL<CX2SA
Sent: 140912/2205Z @:CX2SA.SAL.URY.SOAM #:10397 [Salto] FBB7.00e $:ARLK071
From: CX2SA@CX2SA.SAL.URY.SOAM
To  : KEP@ARL


ZCZC SK71
QST de W1AW
Keplerian Bulletin 71  ARLK071
From ARRL Headquarters
Newington, CT  September 12, 2014
To all radio amateurs

SB KEP ARL ARLK071
ARLK071 Keplerian data

Special thanks to AMSAT-NA (AMSAT.ORG) for the following Keplerian
data.

Decode 2-line elsets with the following key:
1 AAAAAU 00  0  0 BBBBB.BBBBBBBB  .CCCCCCCC  00000-0  00000-0 0  DDDZ
2 AAAAA EEE.EEEE FFF.FFFF GGGGGGG HHH.HHHH III.IIII JJ.JJJJJJJJKKKKKZ
KEY: A-CATALOGNUM B-EPOCHTIME C-DECAY D-ELSETNUM E-INCLINATION F-RAAN
G-ECCENTRICITY H-ARGPERIGEE I-MNANOM J-MNMOTION K-ORBITNUM Z-CHECKSUM

0 AO-07
1 07530U 74089B   14254.80586541 -.00000015  00000-0  17724-3 0   583
2 07530 101.4826 233.8146 0012288 124.5377 309.7187 12.53606844822372
0 AO-16
1 20439U 90005D   14255.07036002  .00000187  00000-0  85007-4 0  1090
2 20439 098.5111 190.7885 0009732 260.7148 163.1468 14.32385032286929
0 AO-27
1 22825U 93061C   14254.82855679  .00000151  00000-0  76198-4 0  7567
2 22825 098.6694 200.4766 0009145 050.3980 002.5126 14.29743245 93168
0 FO-29
1 24278U 96046B   14255.02859076 -.00000014  00000-0  18726-4 0  4610
2 24278 098.5152 256.9027 0351406 072.4163 306.7204 13.53029138892419
0 ISS
1 25544U 98067A   14255.71277692  .00019660  00000-0  34550-3 0   799
2 25544 051.6483 025.7639 0003584 096.0131 042.7748 15.50495521904902
0 NO-44
1 26931U 01043C   14255.46300057  .00000143  00000-0  87183-4 0  6919
2 26931 067.0523 173.3949 0007367 277.7247 082.3018 14.30148623676082
0 SO-50
1 27607U 02058C   14255.00532971  .00000884  00000-0  15193-3 0  4987
2 27607 064.5571 327.6661 0058355 347.1196 012.8411 14.73897232630271
0 CO-55
1 27844U 03031E   14254.98691257  .00000341  00000-0  17555-3 0   114
2 27844 098.6999 262.5127 0010030 031.7636 020.8265 14.21553572580913
0 RS-22
1 27939U 03042A   14255.43715242  .00000834  00000-0  16270-3 0  8403
2 27939 097.8159 065.2863 0012923 186.3178 173.7898 14.65315516585505
0 CO-58
1 28895U 05043F   14255.47491638  .00001176  00000-0  24262-3 0  8659
2 28895 097.8298 092.7961 0018811 095.5718 264.7630 14.62012947473003
0 CO-65
1 32785U 08021C   14254.79332235  .00001784  00000-0  21233-3 0   496
2 32785 097.6905 303.2136 0012418 261.3234 161.6190 14.85515287344885
0 COMPASS 1
1 32787U 08021E   14255.04238470  .00004843  00000-0  52898-3 0   325
2 32787 097.6925 306.0671 0012421 251.1486 108.8384 14.88280522345102
0 DO-64
1 32789U 08021G   14254.77650560  .00007989  00000-0  75008-3 0   618
2 32789 097.7121 314.2620 0011227 231.7143 267.6783 14.94175046345428
0 RS-30
1 32953U 08025A   14255.47806226  .00000010  00000-0  00000+0 0  2802
2 32953 082.5113 146.9524 0019122 331.7187 028.2851 12.43050119286109
0 KKS-1
1 33499U 09002H   14255.34808906  .00001597  00000-0  25352-3 0  4542
2 33499 098.2008 023.9095 0008979 357.1871 055.4832 14.73543601302680
0 AO-73
1 39445U 13066AF  14254.72423719  .00001549  00000-0  21266-3 0  2444
2 39445 097.7687 322.4083 0061432 323.4881 036.2185 14.78523454 41821

Keplerian bulletins are transmitted twice weekly from W1AW.  The
next scheduled transmission of these data will be Tuesday, September
16, 2014, 2230z on Baudot and BPSK31.
NNNN


Read previous mail | Read next mail


 14.07.2026 19:35:22lGo back Go up